Weather History for KWMC - June, 2013

Change the Weather History Date:

Friday, June 7, 2013

  Actual Average Record
Temperature  
Mean Temperature 72 °F 61 °F  
Max Temperature 96 °F 79 °F 96 °F (1996)
Min Temperature 48 °F 43 °F 28 °F (1954)
Degree Days  
Heating Degree Days 0 5  
Month to date heating degree days 6 41  
Since 1 June heating degree days 6 41  
Since 1 July heating degree days 6346 6241  
Cooling Degree Days 7 1  
Month to date cooling degree days 15 7  
Year to date cooling degree days 16 18  
Since 1 June cooling degree days 15 7  
Growing Degree Days 22 (Base 50)    
Moisture  
Dew Point 30 °F    
Average Humidity 28    
Maximum Humidity 46    
Minimum Humidity 9    
Precipitation  
Precipitation 0.00 in 0.03 in 0.45 in (1894)
Month to date precipitation 0.00 0.19  
Year to date precipitation 1.83 4.56  
Snow  
Snow 0.00 in 0.00 in 0.00 in (1877)
Month to date snowfall 0.0 0.0  
Since 1 June snowfall 0.0 0.0  
Since 1 July snowfall 21.9 20.9  
Snow Depth 0.00 in    
Sea Level Pressure  
Sea Level Pressure 29.89 in    
Wind  
Wind Speed 7 mph (West)    
Max Wind Speed 20 mph    
Max Gust Speed 26 mph    
Visibility 10 miles    
Events      
T = Trace of Precipitation, MM = Missing Value Source: NWS Daily Summary

Daily Weather History Graph

Daily Weather History Graph

Search for Another Location

Airport or City:

Trip Planner

Search our weather history database for the weather conditions in past years. The results will help you decide how hot, cold, wet, or windy it might be!

Date:

Astronomy

Jun. 07, 2013 Rise Set
Actual Time 5:19 AM PDT 8:21 PM PDT
Civil Twilight 4:46 AM PDT 8:54 PM PDT
Nautical Twilight 4:04 AM PDT 9:36 PM PDT
Astronomical Twilight 3:14 AM PDT 10:26 PM PDT
Moon 4:46 AM PDT (6/7) 7:38 PM PDT (6/7)
Length of Visible Light 16h 07m
Length of Day
15h 01m
Waning Crescent, 1% of the Moon is Illuminated
Jun 7
Waning Crescent
Jun 8
New
Jun 16
First Quarter
Jun 23
Full
Jun 29
Last Quarter

Hourly Weather History & Observations

Time (PDT) Temp. Dew Point Humidity Pressure Visibility Wind Dir Wind Speed Gust Speed Precip Events Conditions
12:56 AM 55.0 °F 26.1 °F 33% 29.88 in 10.0 mi West 3.5 mph - 0.01 in   Clear
1:56 AM 52.0 °F 28.0 °F 40% 29.89 in 10.0 mi South 3.5 mph - N/A   Clear
2:56 AM 50.0 °F 28.0 °F 43% 29.91 in 10.0 mi SSE 6.9 mph - N/A   Clear
3:56 AM 50.0 °F 28.0 °F 43% 29.90 in 10.0 mi SSE 6.9 mph - N/A   Clear
4:56 AM 48.9 °F 28.0 °F 44% 29.91 in 10.0 mi SE 5.8 mph - N/A   Clear
5:56 AM 51.1 °F 26.1 °F 38% 29.92 in 10.0 mi SE 4.6 mph - N/A   Clear
6:56 AM 61.0 °F 30.0 °F 31% 29.92 in 10.0 mi Calm Calm - N/A   Clear
7:56 AM 71.1 °F 30.0 °F 22% 29.92 in 10.0 mi Calm Calm - N/A   Clear
8:56 AM 81.0 °F 32.0 °F 17% 29.93 in 10.0 mi NNW 6.9 mph - N/A   Clear
9:56 AM 84.9 °F 32.0 °F 15% 29.94 in 10.0 mi WNW 8.1 mph - N/A   Clear
10:56 AM 88.0 °F 30.9 °F 13% 29.93 in 10.0 mi Variable 4.6 mph 16.1 mph N/A   Clear
11:56 AM - - N/A% 30.06 in - North - - N/A   Clear
12:56 PM 91.0 °F 25.0 °F 9% 29.91 in 10.0 mi West 12.7 mph 19.6 mph N/A   Clear
1:56 PM 93.9 °F 27.0 °F 9% 29.88 in 10.0 mi West 10.4 mph 20.7 mph N/A   Clear
2:56 PM 93.9 °F 26.1 °F 9% 29.86 in 10.0 mi WNW 10.4 mph 16.1 mph N/A   Clear
3:56 PM 96.1 °F 28.0 °F 9% 29.84 in 10.0 mi West 18.4 mph 26.5 mph N/A   Clear
4:56 PM 95.0 °F 30.9 °F 10% 29.83 in 10.0 mi NNW 10.4 mph - N/A   Clear
5:56 PM 93.0 °F 32.0 °F 12% 29.81 in 10.0 mi West 10.4 mph - N/A   Clear
6:56 PM 93.0 °F 32.0 °F 12% 29.79 in 10.0 mi NW 6.9 mph - N/A   Clear
7:56 PM 88.0 °F 35.1 °F 15% 29.79 in 10.0 mi North 16.1 mph - N/A   Clear
8:56 PM 82.0 °F 37.0 °F 20% 29.81 in 10.0 mi NNE 6.9 mph - N/A   Clear
9:56 PM 80.1 °F 36.0 °F 20% 29.83 in 10.0 mi Variable 4.6 mph - N/A   Clear
10:56 PM 75.0 °F 35.1 °F 23% 29.84 in 10.0 mi Variable 4.6 mph - N/A   Clear
11:56 PM 64.9 °F 34.0 °F 32% 30.02 in 10.0 mi WSW 4.6 mph - N/A   Clear